FW6253 Weather Reports


Display with metric or nautical units.
time (UTC)temp
F
wind
direction
speed
MPH
gust
MPH
rain 1hr
in
rain 24hr
in
rain mn
in
humidity
%
barometer
mb
20260509042554 71 0 0.0 6.0 0.00 0.00 0.00 92 1010.2
20260509042054 71 116 1.0 6.0 0.00 0.00 0.00 92 1010.2
20260509041555 71 119 0.0 6.0 0.00 0.00 0.00 92 1010.0
20260509041054 71 0 0.0 3.0 0.00 0.00 0.00 92 1009.9
20260509040555 71 0 0.0 2.0 0.00 0.00 0.00 92 1010.0
20260509040054 71 0 0.0 2.0 0.00 0.00 0.00 92 1010.0
20260509035553 71 0 0.0 2.0 0.00 0.00 0.00 91 1009.9
20260509035053 71 0 0.0 3.0 0.00 0.00 0.00 91 1009.9
20260509034554 71 107 0.0 3.0 0.00 0.00 0.00 91 1009.7
20260509034056 71 110 0.0 3.0 0.00 0.00 0.00 91 1009.6
20260509033554 71 0 0.0 4.0 0.00 0.00 0.00 91 1009.6
20260509033052 71 0 0.0 4.0 0.00 0.00 0.00 91 1009.7
20260509032554 71 0 0.0 3.0 0.00 0.00 0.00 90 1009.7
20260509032057 71 0 0.0 0.0 0.00 0.00 0.00 90 1009.7
20260509031617 72 0 0.0 0.0 0.00 0.00 0.00 90 1009.8
20260509031054 72 0 0.0 0.0 0.00 0.00 0.00 90 1009.9
20260509030554 72 0 0.0 0.0 0.00 0.00 0.00 90 1009.7
20260509030054 72 0 0.0 1.0 0.00 0.00 0.00 90 1009.8
20260509025555 72 0 0.0 1.0 0.00 0.00 0.00 89 1009.8
20260509025053 72 0 0.0 1.0 0.00 0.00 0.00 89 1009.7
20260509024553 72 0 0.0 1.0 0.00 0.00 0.00 89 1009.7
20260509024054 72 0 0.0 3.0 0.00 0.00 0.00 89 1009.7
20260509023554 72 0 0.0 3.0 0.00 0.00 0.00 89 1009.6
20260509023058 73 0 0.0 2.0 0.00 0.00 0.00 89 1009.6
20260509022553 73 0 0.0 2.0 0.00 0.00 0.00 88 1009.5
20260509022053 73 121 0.0 4.0 0.00 0.00 0.00 88 1009.4
20260509021553 73 121 1.0 4.0 0.00 0.00 0.00 88 1009.3
20260509021052 73 115 0.0 2.0 0.00 0.00 0.00 88 1009.3
20260509020555 73 115 0.0 2.0 0.00 0.00 0.00 88 1009.3
20260509020055 73 117 0.0 2.0 0.00 0.00 0.00 88 1009.1
20260509015553 73 117 0.0 2.0 0.00 0.00 0.00 88 1008.9
20260509015053 73 0 0.0 2.0 0.00 0.00 0.00 88 1008.8
20260509014553 73 0 0.0 2.0 0.00 0.00 0.00 87 1008.8
20260509014052 73 0 0.0 2.0 0.00 0.00 0.00 87 1008.7
20260509013552 73 0 0.0 2.0 0.00 0.00 0.00 87 1008.5
20260509013106 73 0 0.0 2.0 0.00 0.00 0.00 87 1008.5
20260509012554 73 0 0.0 3.0 0.00 0.00 0.00 86 1008.7
20260509012052 73 0 0.0 3.0 0.00 0.00 0.00 86 1008.6
20260509011556 74 80 0.0 3.0 0.00 0.00 0.00 86 1008.7
20260509011053 74 79 0.0 3.0 0.00 0.00 0.00 86 1008.5
20260509010553 74 0 0.0 4.0 0.00 0.00 0.00 86 1008.4
20260509010058 74 0 0.0 4.0 0.00 0.00 0.00 85 1008.4
20260509005553 74 80 0.0 4.0 0.00 0.00 0.00 85 1008.4
20260509005053 74 0 0.0 2.0 0.00 0.00 0.00 85 1008.5
20260509004558 74 0 0.0 4.0 0.00 0.00 0.00 84 1008.4
20260509004055 74 0 0.0 4.0 0.00 0.00 0.00 84 1008.5
20260509003553 74 76 1.0 4.0 0.00 0.00 0.00 84 1008.5
20260509003054 74 76 0.0 2.0 0.00 0.00 0.00 84 1008.5
20260509002557 74 0 0.0 1.0 0.00 0.00 0.00 84 1008.5
20260509002052 75 0 0.0 3.0 0.00 0.00 0.00 83 1008.4
20260509001557 75 0 0.0 3.0 0.00 0.00 0.00 84 1008.4
20260509001053 75 0 0.0 3.0 0.00 0.00 0.00 83 1008.5
20260509000553 75 5 0.0 2.0 0.00 0.00 0.00 83 1008.5
20260509000108 75 0 0.0 2.0 0.00 0.00 0.00 83 1008.6
20260508235553 75 0 0.0 3.0 0.00 0.00 0.00 83 1008.6
20260508235053 75 0 0.0 6.0 0.00 0.00 0.00 83 1008.6
20260508234609 75 0 1.0 6.0 0.00 0.00 0.00 82 1008.5
20260508234053 75 79 2.0 5.0 0.00 0.00 0.00 82 1008.6
20260508233553 75 0 0.0 3.0 0.00 0.00 0.00 82 1008.6
20260508233106 75 104 1.0 3.0 0.00 0.00 0.00 82 1008.6
20260508232554 75 0 0.0 4.0 0.00 0.00 0.00 82 1008.6
20260508232053 75 103 1.0 4.0 0.00 0.00 0.00 82 1008.5
20260508231606 75 122 0.0 4.0 0.00 0.00 0.00 82 1008.5
20260508231055 75 80 1.0 6.0 0.00 0.00 0.00 81 1008.6
20260508230553 75 0 1.0 6.0 0.00 0.00 0.00 81 1008.6
20260508230104 76 103 1.0 6.0 0.00 0.00 0.00 80 1008.5
20260508225553 76 94 1.0 6.0 0.00 0.00 0.00 79 1008.4
20260508225053 76 130 1.0 6.0 0.00 0.00 0.00 80 1008.6
20260508224604 75 107 0.0 6.0 0.00 0.00 0.00 81 1008.6
20260508224057 75 82 1.0 5.0 0.00 0.00 0.00 80 1008.7
20260508223557 75 96 1.0 6.0 0.00 0.00 0.00 80 1008.8
20260508223054 75 178 2.0 6.0 0.00 0.00 0.00 81 1008.8
20260508222554 75 0 1.0 4.0 0.00 0.00 0.00 80 1008.9
20260508222053 75 0 0.0 5.0 0.00 0.00 0.00 82 1009.0
20260508221551 74 0 1.0 5.0 0.00 0.00 0.00 81 1009.0
20260508221054 74 151 1.0 4.0 0.00 0.00 0.00 81 1009.0
20260508220554 74 134 1.0 5.0 0.00 0.00 0.00 82 1009.1
20260508220054 74 71 1.0 5.0 0.00 0.00 0.00 83 1009.1
20260508215553 73 113 0.0 3.0 0.00 0.00 0.00 83 1009.0
20260508215053 73 0 0.0 4.0 0.00 0.00 0.00 82 1009.2
20260508214608 73 0 1.0 4.0 0.00 0.00 0.00 82 1009.2
20260508214054 74 93 1.0 4.0 0.00 0.00 0.00 82 1009.2
20260508213553 74 98 0.0 3.0 0.00 0.00 0.00 82 1009.2
20260508213101 74 0 1.0 3.0 0.00 0.00 0.00 82 1009.3
20260508212558 74 0 1.0 3.0 0.00 0.00 0.00 82 1009.4
20260508212056 73 115 0.0 3.0 0.00 0.00 0.00 82 1009.4
20260508211559 73 0 1.0 3.0 0.00 0.00 0.00 82 1009.5
20260508211054 73 114 1.0 3.0 0.00 0.00 0.00 82 1009.6
20260508210557 73 0 0.0 3.0 0.00 0.00 0.00 82 1009.8
20260508210055 73 0 0.0 4.0 0.00 0.00 0.00 82 1009.8
20260508205553 73 162 1.0 4.0 0.00 0.00 0.00 82 1010.0
20260508205053 74 125 1.0 4.0 0.00 0.00 0.00 82 1010.0
20260508204614 73 128 0.0 6.0 0.00 0.00 0.00 82 1010.0
20260508204056 73 0 0.0 6.0 0.00 0.00 0.00 83 1010.0
20260508203553 73 122 1.0 6.0 0.00 0.00 0.00 82 1009.9
20260508203058 73 211 2.0 6.0 0.00 0.00 0.00 81 1009.9
20260508202553 73 115 0.0 8.0 0.00 0.00 0.00 82 1009.9
20260508202053 73 138 2.0 8.0 0.00 0.00 0.00 81 1009.9
20260508201610 74 136 2.0 8.0 0.00 0.00 0.00 80 1009.9
20260508201055 74 123 0.0 4.0 0.00 0.00 0.00 81 1010.0
20260508200553 74 100 0.0 5.0 0.00 0.00 0.00 81 1010.0
20260508200115 73 0 1.0 6.0 0.00 0.00 0.00 82 1010.0
20260508195553 73 78 2.0 6.0 0.00 0.00 0.00 82 1010.1
20260508195054 73 80 1.0 6.0 0.00 0.00 0.00 82 1010.2
20260508194553 73 62 1.0 6.0 0.00 0.00 0.00 82 1010.2
20260508194054 73 69 0.0 5.0 0.00 0.00 0.00 82 1010.2
20260508193553 72 52 2.0 5.0 0.00 0.00 0.00 82 1010.2
20260508193057 72 0 1.0 4.0 0.00 0.00 0.00 83 1010.2
20260508192553 72 107 1.0 5.0 0.00 0.00 0.00 83 1010.4
20260508192054 72 127 1.0 5.0 0.00 0.00 0.00 83 1010.4
20260508191552 72 130 1.0 5.0 0.00 0.00 0.00 82 1010.5
20260508191053 72 82 1.0 4.0 0.00 0.00 0.00 82 1010.5
20260508190553 72 113 1.0 5.0 0.00 0.00 0.00 82 1010.5
20260508185553 72 116 1.0 4.0 0.00 0.00 0.00 82 1010.6
20260508185053 72 117 1.0 4.0 0.00 0.00 0.00 82 1010.6
20260508184557 72 93 0.0 4.0 0.00 0.00 0.00 82 1010.7
20260508184057 72 55 1.0 5.0 0.00 0.00 0.00 83 1010.7
20260508183553 72 0 1.0 5.0 0.00 0.00 0.00 83 1010.8
20260508183055 72 142 1.0 6.0 0.00 0.00 0.00 83 1010.8
20260508182553 71 137 0.0 6.0 0.00 0.00 0.00 82 1010.9
20260508182053 71 142 2.0 6.0 0.00 0.00 0.00 83 1011.0
20260508181615 71 128 1.0 4.0 0.00 0.00 0.00 82 1011.2
20260508181055 70 119 0.0 3.0 0.00 0.00 0.00 84 1011.2
20260508180555 70 119 1.0 3.0 0.00 0.00 0.00 83 1011.4
20260508180110 70 0 0.0 3.0 0.00 0.00 0.00 84 1011.6
20260508175553 70 0 1.0 3.0 0.00 0.00 0.00 83 1011.6
20260508175054 70 0 0.0 4.0 0.00 0.00 0.00 83 1011.6
20260508174603 70 0 1.0 4.0 0.00 0.00 0.00 84 1011.7
20260508174057 70 115 1.0 4.0 0.00 0.00 0.00 84 1011.7
20260508173553 69 0 0.0 4.0 0.00 0.00 0.00 84 1011.7
20260508173056 69 117 1.0 4.0 0.00 0.00 0.00 83 1011.8
20260508172556 69 0 0.0 2.0 0.00 0.00 0.00 84 1011.8
20260508172054 69 0 0.0 3.0 0.00 0.00 0.00 85 1011.8
20260508171554 69 105 1.0 3.0 0.00 0.00 0.00 85 1011.8
20260508171052 69 0 0.0 4.0 0.00 0.00 0.00 85 1011.7
20260508170554 68 105 1.0 4.0 0.00 0.00 0.00 85 1011.7
20260508170059 68 0 0.0 1.0 0.00 0.00 0.00 85 1011.8
20260508165554 68 0 0.0 3.0 0.00 0.00 0.00 85 1011.8
20260508165053 68 73 0.0 3.0 0.00 0.00 0.00 85 1011.9
20260508164556 68 61 0.0 3.0 0.00 0.00 0.00 85 1011.8
20260508164053 68 62 0.0 4.0 0.00 0.00 0.00 85 1011.9
20260508163557 68 61 1.0 5.0 0.00 0.00 0.00 85 1012.0
20260508163053 67 58 1.0 5.0 0.00 0.00 0.00 86 1011.9
20260508162553 67 0 1.0 4.0 0.00 0.00 0.00 85 1012.0
20260508162053 67 64 0.0 5.0 0.00 0.00 0.00 86 1012.0
20260508161551 67 73 0.0 8.0 0.00 0.00 0.00 86 1012.1
20260508161053 66 76 2.0 8.0 0.00 0.00 0.00 87 1012.0
20260508160552 66 53 1.0 4.0 0.00 0.00 0.00 88 1012.2
20260508160052 65 58 0.0 3.0 0.00 0.00 0.00 88 1012.3
20260508155552 65 56 0.0 4.0 0.00 0.00 0.00 88 1012.5
20260508155051 65 0 0.0 4.0 0.00 0.00 0.00 88 1012.5
20260508154556 64 55 0.0 2.0 0.00 0.00 0.00 88 1012.6
20260508154055 64 0 0.0 3.0 0.00 0.00 0.00 88 1012.7
20260508153553 64 0 0.0 4.0 0.00 0.00 0.00 88 1012.8
20260508153054 64 0 1.0 4.0 0.00 0.00 0.00 88 1012.7
20260508152556 64 0 0.0 6.0 0.00 0.00 0.00 88 1013.0
20260508152054 64 58 0.0 6.0 0.00 0.00 0.00 88 1012.9
20260508151554 64 31 0.0 4.0 0.00 0.00 0.00 89 1012.9
20260508151053 64 0 1.0 4.0 0.00 0.00 0.00 89 1012.9
20260508150552 63 30 0.0 5.0 0.00 0.00 0.00 89 1013.0
20260508150055 63 0 1.0 5.0 0.00 0.00 0.00 89 1013.1
20260508145553 63 66 2.0 5.0 0.00 0.00 0.00 89 1013.1
20260508145056 62 46 0.0 3.0 0.00 0.00 0.00 89 1013.0
20260508144556 62 47 1.0 3.0 0.00 0.00 0.00 89 1013.1
20260508144053 62 0 0.0 3.0 0.00 0.00 0.00 89 1013.0
20260508143553 62 48 0.0 4.0 0.00 0.00 0.00 89 1013.1
20260508143100 62 0 0.0 5.0 0.00 0.00 0.00 89 1013.1
20260508142553 62 50 1.0 5.0 0.00 0.00 0.00 88 1013.1
20260508142052 62 0 1.0 5.0 0.00 0.00 0.00 88 1013.1
20260508141600 62 41 0.0 3.0 0.00 0.00 0.00 88 1013.2
20260508141054 62 0 1.0 3.0 0.00 0.00 0.00 88 1013.2
20260508140558 62 0 0.0 2.0 0.00 0.00 0.00 87 1013.4
20260508140106 62 49 0.0 4.0 0.00 0.00 0.00 87 1013.2
20260508135555 61 0 1.0 4.0 0.00 0.00 0.00 87 1013.0
20260508135053 61 0 0.0 5.0 0.00 0.00 0.00 87 1013.0
20260508134551 61 57 0.0 5.0 0.00 0.00 0.00 87 1012.8
20260508134053 61 0 1.0 5.0 0.00 0.00 0.00 87 1012.9
20260508133553 61 0 0.0 5.0 0.00 0.00 0.00 87 1012.9
20260508133055 61 0 1.0 5.0 0.00 0.00 0.00 86 1012.9
20260508132552 61 0 0.0 4.0 0.00 0.00 0.00 86 1012.7
20260508132053 61 55 1.0 4.0 0.00 0.00 0.00 86 1012.5
20260508131602 61 57 0.0 4.0 0.00 0.00 0.00 86 1012.5
20260508131054 61 63 0.0 3.0 0.00 0.00 0.00 86 1012.7
20260508130556 61 0 0.0 4.0 0.00 0.00 0.00 86 1012.8
20260508130053 61 0 0.0 4.0 0.00 0.00 0.00 86 1012.8
20260508125553 61 40 0.0 4.0 0.00 0.00 0.00 86 1012.9
20260508125054 61 34 0.0 4.0 0.00 0.00 0.00 86 1012.9
20260508124556 61 0 0.0 3.0 0.00 0.00 0.00 86 1013.2
20260508124053 61 0 0.0 3.0 0.00 0.00 0.00 86 1013.0
20260508123554 61 0 0.0 3.0 0.00 0.00 0.00 85 1012.9
20260508123055 61 0 0.0 2.0 0.00 0.00 0.00 86 1012.7
20260508122552 61 33 0.0 4.0 0.00 0.00 0.00 85 1012.7
20260508122053 61 0 0.0 4.0 0.00 0.00 0.00 85 1013.0
20260508121604 61 0 0.0 2.0 0.00 0.00 0.00 85 1013.2
20260508121057 61 0 0.0 2.0 0.00 0.00 0.00 85 1013.3
20260508120552 61 5 0.0 0.0 0.00 0.00 0.00 85 1013.2
20260508120057 61 0 0.0 2.0 0.00 0.00 0.00 86 1013.2
20260508115553 61 0 0.0 2.0 0.00 0.00 0.00 85 1013.1
20260508115052 60 0 0.0 5.0 0.00 0.00 0.00 85 1013.0
20260508114553 60 0 0.0 5.0 0.00 0.00 0.00 85 1013.0
20260508114053 60 71 2.0 5.0 0.00 0.00 0.00 86 1012.9
20260508113553 60 0 1.0 11.0 0.00 0.00 0.00 86 1012.9
20260508113057 60 0 1.0 11.0 0.00 0.00 0.00 86 1013.1
20260508112553 60 83 1.0 8.0 0.00 0.00 0.00 86 1012.8
20260508112053 60 103 1.0 8.0 0.00 0.00 0.00 87 1013.1
20260508111559 60 0 0.0 5.0 0.00 0.00 0.00 86 1013.2
20260508111053 60 13 0.0 5.0 0.00 0.00 0.00 86 1013.2
20260508110554 60 59 0.0 5.0 0.00 0.00 0.00 86 1012.8
20260508110059 60 65 0.0 5.0 0.00 0.00 0.00 86 1012.9
20260508105556 61 0 0.0 2.0 0.00 0.00 0.00 86 1013.2
20260508105053 60 0 0.0 2.0 0.00 0.00 0.00 86 1013.6
20260508104551 60 0 0.0 2.0 0.00 0.00 0.00 86 1013.7
20260508104052 60 0 0.0 2.0 0.00 0.00 0.00 87 1014.0
20260508103552 60 0 0.0 2.0 0.00 0.00 0.00 87 1013.9
20260508103120 60 0 0.0 2.0 0.00 0.00 0.00 87 1013.6
20260508102552 60 0 0.0 3.0 0.00 0.00 0.00 87 1013.2
20260508102052 60 0 0.0 3.0 0.00 0.00 0.00 87 1013.0
20260508101605 60 0 0.0 5.0 0.00 0.00 0.00 87 1012.9
20260508101053 60 20 0.0 5.0 0.00 0.00 0.00 87 1013.0
20260508100553 60 17 1.0 5.0 0.00 0.00 0.00 87 1013.2
20260508100050 60 20 0.0 2.0 0.00 0.00 0.00 87 1013.0
20260508095554 60 0 0.0 3.0 0.00 0.00 0.00 87 1012.7
20260508095052 60 0 0.0 3.0 0.00 0.00 0.00 87 1012.9
20260508094606 60 0 0.0 3.0 0.00 0.00 0.00 86 1012.9
20260508094053 60 38 0.0 3.0 0.00 0.00 0.00 86 1012.7
20260508093553 61 0 0.0 3.0 0.00 0.00 0.00 85 1012.5
20260508093053 61 0 0.0 5.0 0.00 0.00 0.00 85 1012.4
20260508092553 61 49 1.0 5.0 0.00 0.00 0.00 84 1012.3
20260508092056 61 65 0.0 9.0 0.00 0.00 0.00 84 1012.4
20260508091556 61 84 1.0 9.0 0.00 0.00 0.00 83 1012.5
20260508091052 61 0 2.0 9.0 0.00 0.00 0.00 83 1013.7
20260508090553 61 38 0.0 4.0 0.00 0.00 0.00 83 1013.1
20260508090107 61 123 0.0 5.0 0.00 0.00 0.00 84 1012.6
20260508085553 61 57 0.0 5.0 0.00 0.00 0.00 84 1013.1
20260508085053 61 51 0.0 3.0 0.00 0.00 0.00 84 1013.4
20260508084552 61 0 0.0 3.0 0.00 0.00 0.00 84 1013.3
20260508084052 61 0 0.0 3.0 0.00 0.00 0.00 84 1013.0
20260508083554 61 0 1.0 3.0 0.00 0.00 0.00 84 1013.4
20260508083111 61 0 0.0 2.0 0.00 0.00 0.00 85 1013.3
20260508082553 61 0 0.0 2.0 0.00 0.00 0.00 84 1013.1
20260508082052 61 51 0.0 3.0 0.00 0.00 0.00 85 1013.3
20260508081555 60 0 0.0 3.0 0.00 0.00 0.00 85 1013.3
20260508081051 60 52 0.0 2.0 0.00 0.00 0.00 85 1013.3
20260508080552 61 0 0.0 1.0 0.00 0.00 0.00 85 1013.1
20260508080053 61 0 0.0 1.0 0.00 0.00 0.00 84 1013.1
20260508075555 61 0 0.0 0.0 0.00 0.00 0.00 83 1013.5
20260508075052 61 0 0.0 0.0 0.00 0.00 0.00 82 1013.9
20260508074553 61 0 0.0 0.0 0.00 0.00 0.00 82 1014.0
20260508074055 62 0 0.0 0.0 0.00 0.00 0.00 80 1013.8
20260508073553 62 0 0.0 0.0 0.00 0.00 0.00 79 1013.8
20260508073052 62 0 0.0 2.0 0.00 0.00 0.00 77 1014.0
20260508072610 63 0 0.0 2.0 0.00 0.00 0.00 76 1014.2
20260508072055 62 0 0.0 2.0 0.00 0.00 0.00 76 1014.1
20260508071554 62 0 0.0 3.0 0.00 0.00 0.00 76 1014.2
20260508071055 62 0 0.0 3.0 0.00 0.00 0.00 76 1014.1
20260508070556 62 55 0.0 3.0 0.00 0.00 0.00 76 1014.1
20260508070055 62 0 0.0 4.0 0.00 0.00 0.00 76 1013.9
20260508065556 62 0 0.0 4.0 0.00 0.00 0.00 76 1014.1
20260508065054 62 0 0.0 2.0 0.00 0.00 0.00 76 1014.1
20260508064557 62 0 0.0 3.0 0.00 0.00 0.00 76 1014.2
20260508064054 62 0 0.0 3.0 0.00 0.00 0.00 76 1014.3
20260508063555 62 0 0.0 3.0 0.00 0.00 0.00 76 1014.2
20260508063056 62 0 0.0 4.0 0.00 0.00 0.00 76 1013.9
20260508062554 62 0 0.0 8.0 0.00 0.00 0.00 76 1013.5
20260508062056 63 0 2.0 8.0 0.00 0.00 0.00 76 1013.2
20260508061559 63 60 2.0 6.0 0.00 0.00 0.00 76 1012.9
20260508061055 63 80 1.0 5.0 0.00 0.00 0.00 76 1013.2
20260508060554 63 58 1.0 4.0 0.00 0.00 0.00 76 1013.6
20260508060056 63 47 1.0 4.0 0.00 0.00 0.00 76 1014.0
20260508055555 63 54 0.0 3.0 0.00 0.00 0.00 75 1014.2
20260508055055 63 54 1.0 3.0 0.00 0.00 0.00 75 1014.1
20260508054600 63 0 0.0 3.0 0.00 0.00 0.00 75 1014.5
20260508054054 63 0 0.0 2.0 0.00 0.00 0.00 75 1014.7
20260508053554 63 0 0.0 3.0 0.00 0.00 0.00 75 1014.6
20260508053058 63 57 0.0 3.0 0.00 0.00 0.00 75 1014.7
20260508052554 63 57 0.0 3.0 0.00 0.00 0.00 75 1015.0
20260508052056 63 57 1.0 3.0 0.00 0.00 0.00 75 1014.8
20260508051555 63 48 1.0 3.0 0.00 0.00 0.00 75 1014.2
20260508051054 63 25 0.0 3.0 0.00 0.00 0.00 76 1014.5
20260508050555 63 24 0.0 6.0 0.00 0.00 0.00 76 1014.7
20260508050057 63 22 0.0 6.0 0.00 0.00 0.00 76 1014.7
20260508045554 63 5 0.0 5.0 0.00 0.00 0.00 76 1015.2
20260508045054 62 16 0.0 4.0 0.00 0.00 0.00 76 1014.9
20260508044552 62 360 1.0 5.0 0.00 0.00 0.00 77 1015.1
20260508044056 62 5 2.0 5.0 0.00 0.00 0.00 77 1014.6
20260508043554 62 59 1.0 5.0 0.00 0.00 0.00 76 1013.2
20260508043101 62 101 2.0 5.0 0.00 0.00 0.00 76 1013.3